sat.trackr.live / text

‹ back to catalog

STARLINK-35064

NORAD 65531 · 2025-200M

PAYLOAD ACTIVE UNKNOWN

§ Identity

Operator
Country
US
Launch date
2025-09-06
Launch site
AFWTR
Launch vehicle
Mass (kg)
RCS (m²)

Purposes: comms

External: N2YO · Heavens-Above · Gunter

§ Orbital elements

Epoch: 2026-09-20T22:14:30.545952Z

Period
93.91 min
Inclination
97.2885°
Eccentricity
0.0000920
Mean motion
15.33452428 rev/d
Perigee alt
464.9 km
Apogee alt
466.2 km
Semi-major
6,843.7 km
B*
5.6011e-4
RAAN
330.2631°
Arg perigee
84.7674°
Mean anomaly
275.3674°
Rev number
5,870

§ Raw data

STARLINK-350641 65531U 25200M   26263.92674243  .00018055  00000+0  56011-3 0  99992 65531  97.2885 330.2631 0000920  84.7674 275.3674 15.33452428 58707

JSON: /api/v1/satellites/65531 · /tle

For live sub-satellite position, see the globe view (requires WebGL).

§ Visibility from observer

Set your observer location to see the next 7 days of passes ≥ 10°. The values pass through the URL so the page stays shareable.

No JS? Fill the form by hand. The geolocation button needs JavaScript.